When you browse on this site, cookies collect data to enhance your experience and personalize the content and advertising you see.
Visit our Privacy Policy to learn more. By continuing to use the site, you agree to this use of cookies and data.
  • In Spain
  • List of Countries
  • For 7 days
  • Water Temperature
  • Weather Map
  • Weather Widgets
  • user-avatar
    Login

    Hourly Weather Trieste

    Today, 3 June, Wednesday

    Time Temperature Precipitation Wind Pressure Humidity
    00:00 +15°C° 0 mm 1 mps 755 mmHg 86%
    01:00 +15°C° 0 mm 1 mps 755 mmHg 86%
    02:00 +15°C° 0.1 mm 1 mps 755 mmHg 87%
    03:00 +14°C° 0.1 mm 1 mps 754 mmHg 87%
    04:00 +14°C° 0.1 mm 2 mps 754 mmHg 88%
    05:00 +16°C° 0.1 mm 1 mps 754 mmHg 87%
    06:00 +18°C° 0.1 mm 1 mps 754 mmHg 85%
    07:00 +19°C° 0 mm 0 mps 754 mmHg 83%
    08:00 +22°C° 0.1 mm 1 mps 753 mmHg 75%
    09:00 +23°C° 0.1 mm 2 mps 753 mmHg 66%
    10:00 +25°C° 0.1 mm 2 mps 753 mmHg 57%
    11:00 +25°C° 0.1 mm 2 mps 752 mmHg 57%
    12:00 +26°C° 0.1 mm 3 mps 752 mmHg 56%
    13:00 +26°C° 0.1 mm 3 mps 752 mmHg 56%
    14:00 +26°C° 0 mm 3 mps 751 mmHg 57%
    15:00 +25°C° 0 mm 3 mps 751 mmHg 58%
    16:00 +25°C° 0 mm 3 mps 750 mmHg 60%
    17:00 +24°C° 0.1 mm 3 mps 750 mmHg 67%
    18:00 +21°C° 0.1 mm 2 mps 750 mmHg 75%
    19:00 +20°C° 0.1 mm 2 mps 750 mmHg 83%
    20:00 +18°C° 0.5 mm 2 mps 750 mmHg 86%
    21:00 +17°C° 0.5 mm 2 mps 750 mmHg 90%
    22:00 +16°C° 0.5 mm 3 mps 750 mmHg 93%
    23:00 +16°C° 0.4 mm 3 mps 750 mmHg 94%

    Tomorrow, 4 June, Thursday

    Time Temperature Precipitation Wind Pressure Humidity
    00:00 +16°C° 0.4 mm 3 mps 750 mmHg 95%
    01:00 +16°C° 0.4 mm 3 mps 750 mmHg 95%
    02:00 +16°C° 0.1 mm 3 mps 749 mmHg 96%
    03:00 +16°C° 0.1 mm 3 mps 749 mmHg 96%
    04:00 +16°C° 0.1 mm 3 mps 749 mmHg 96%
    05:00 +17°C° 0 mm 4 mps 749 mmHg 94%
    06:00 +18°C° 0 mm 4 mps 748 mmHg 92%
    07:00 +19°C° 0 mm 5 mps 748 mmHg 89%
    08:00 +20°C° 0.2 mm 5 mps 748 mmHg 82%
    09:00 +21°C° 0.2 mm 6 mps 748 mmHg 75%
    10:00 +22°C° 0.2 mm 6 mps 748 mmHg 68%
    11:00 +21°C° 0.5 mm 6 mps 748 mmHg 75%
    12:00 +19°C° 0.5 mm 6 mps 748 mmHg 82%
    13:00 +17°C° 0.5 mm 7 mps 747 mmHg 89%
    14:00 +17°C° 3.1 mm 6 mps 747 mmHg 92%
    15:00 +17°C° 3.1 mm 5 mps 747 mmHg 95%
    16:00 +17°C° 3.1 mm 4 mps 747 mmHg 98%
    17:00 +16°C° 3.1 mm 5 mps 746 mmHg 97%
    18:00 +16°C° 3.1 mm 5 mps 746 mmHg 97%
    19:00 +16°C° 3.1 mm 6 mps 745 mmHg 96%
    20:00 +16°C° 0.3 mm 6 mps 745 mmHg 96%
    21:00 +17°C° 0.3 mm 6 mps 744 mmHg 95%
    22:00 +17°C° 0.3 mm 6 mps 744 mmHg 95%
    23:00 +17°C° 2 mm 7 mps 744 mmHg 95%

    Day after tomorrow, 5 June, Friday

    Time Temperature Precipitation Wind Pressure Humidity
    00:00 +17°C° 2 mm 7 mps 743 mmHg 95%
    01:00 +17°C° 2 mm 7 mps 743 mmHg 96%
    02:00 +17°C° 3.3 mm 7 mps 743 mmHg 96%
    03:00 +17°C° 3.3 mm 7 mps 743 mmHg 97%
    04:00 +17°C° 3.3 mm 7 mps 743 mmHg 97%
    05:00 +17°C° 1 mm 6 mps 743 mmHg 97%
    06:00 +18°C° 1 mm 4 mps 743 mmHg 96%
    07:00 +18°C° 1 mm 3 mps 743 mmHg 96%
    08:00 +18°C° 1 mm 3 mps 744 mmHg 94%
    09:00 +18°C° 1 mm 3 mps 744 mmHg 93%
    10:00 +18°C° 1 mm 3 mps 745 mmHg 91%
    11:00 +19°C° 1.2 mm 3 mps 745 mmHg 90%
    12:00 +19°C° 1.2 mm 3 mps 745 mmHg 89%
    13:00 +20°C° 1.2 mm 3 mps 746 mmHg 88%
    14:00 +20°C° 1.4 mm 2 mps 746 mmHg 88%
    15:00 +20°C° 1.4 mm 2 mps 746 mmHg 89%
    16:00 +20°C° 1.4 mm 2 mps 747 mmHg 89%
    17:00 +19°C° 0.5 mm 2 mps 747 mmHg 90%
    18:00 +18°C° 0.5 mm 2 mps 748 mmHg 91%
    19:00 +17°C° 0.5 mm 2 mps 748 mmHg 92%
    20:00 +17°C° 0 mm 2 mps 749 mmHg 92%
    21:00 +16°C° 0 mm 2 mps 750 mmHg 92%
    22:00 +15°C° 0 mm 2 mps 751 mmHg 92%
    23:00 +15°C° 0 mm 2 mps 751 mmHg 92%

    6 June, Saturday

    Time Temperature Precipitation Wind Pressure Humidity
    00:00 +15°C° 0 mm 2 mps 751 mmHg 93%
    01:00 +15°C° 0 mm 2 mps 751 mmHg 93%
    02:00 +15°C° 0 mm 2 mps 752 mmHg 93%
    03:00 +15°C° 0 mm 2 mps 752 mmHg 93%
    04:00 +16°C° 0 mm 2 mps 752 mmHg 93%
    05:00 +17°C° 0 mm 2 mps 752 mmHg 92%
    06:00 +18°C° 0 mm 2 mps 753 mmHg 90%
    07:00 +19°C° 0 mm 3 mps 753 mmHg 89%
    08:00 +19°C° 0.6 mm 3 mps 753 mmHg 88%
    09:00 +20°C° 0.6 mm 3 mps 753 mmHg 87%
    10:00 +21°C° 0.6 mm 4 mps 753 mmHg 86%
    11:00 +21°C° 1 mm 4 mps 753 mmHg 86%
    12:00 +21°C° 1 mm 4 mps 753 mmHg 87%
    13:00 +21°C° 1 mm 4 mps 753 mmHg 87%
    14:00 +22°C° 0.6 mm 4 mps 752 mmHg 84%
    15:00 +22°C° 0.6 mm 4 mps 752 mmHg 82%
    16:00 +22°C° 0.6 mm 3 mps 752 mmHg 79%
    17:00 +21°C° 0.2 mm 3 mps 752 mmHg 82%
    18:00 +20°C° 0.2 mm 2 mps 752 mmHg 85%
    19:00 +19°C° 0.2 mm 2 mps 752 mmHg 88%
    20:00 +19°C° 0.1 mm 2 mps 753 mmHg 90%
    21:00 +18°C° 0.1 mm 2 mps 753 mmHg 92%
    22:00 +17°C° 0.1 mm 3 mps 753 mmHg 94%
    23:00 +17°C° 0.1 mm 3 mps 753 mmHg 93%

    7 June, Sunday

    Time Temperature Precipitation Wind Pressure Humidity
    00:00 +17°C° 0.1 mm 3 mps 753 mmHg 93%
    01:00 +17°C° 0.1 mm 3 mps 753 mmHg 93%
    02:00 +17°C° 0.1 mm 3 mps 753 mmHg 94%
    03:00 +17°C° 0.1 mm 3 mps 753 mmHg 95%
    04:00 +17°C° 0.1 mm 2 mps 753 mmHg 96%
    05:00 +18°C° 0 mm 3 mps 753 mmHg 93%
    06:00 +19°C° 0 mm 3 mps 753 mmHg 91%
    07:00 +20°C° 0 mm 3 mps 753 mmHg 88%
    08:00 +20°C° 0.7 mm 4 mps 753 mmHg 88%
    09:00 +21°C° 0.7 mm 4 mps 753 mmHg 87%
    10:00 +21°C° 0.7 mm 5 mps 753 mmHg 87%
    11:00 +22°C° 0.9 mm 5 mps 753 mmHg 85%
    12:00 +22°C° 0.9 mm 5 mps 753 mmHg 84%
    13:00 +22°C° 0.9 mm 6 mps 752 mmHg 83%
    14:00 +22°C° 0.5 mm 5 mps 752 mmHg 81%
    15:00 +23°C° 0.5 mm 4 mps 752 mmHg 79%
    16:00 +23°C° 0.5 mm 4 mps 752 mmHg 76%
    17:00 +22°C° 0.7 mm 4 mps 752 mmHg 82%
    18:00 +21°C° 0.7 mm 4 mps 752 mmHg 87%
    19:00 +20°C° 0.7 mm 4 mps 752 mmHg 93%
    20:00 +19°C° 1.6 mm 4 mps 752 mmHg 94%
    21:00 +19°C° 1.6 mm 4 mps 753 mmHg 95%
    22:00 +17°C° 1.6 mm 5 mps 753 mmHg 97%
    23:00 +18°C° 0.8 mm 4 mps 753 mmHg 97%

    8 June, Monday

    Time Temperature Precipitation Wind Pressure Humidity
    00:00 +18°C° 0.8 mm 4 mps 753 mmHg 97%
    01:00 +18°C° 0.8 mm 4 mps 753 mmHg 97%
    02:00 +18°C° 1.3 mm 4 mps 753 mmHg 97%
    03:00 +18°C° 1.3 mm 4 mps 753 mmHg 97%
    04:00 +18°C° 1.3 mm 3 mps 753 mmHg 97%
    05:00 +18°C° 1.1 mm 3 mps 753 mmHg 96%
    06:00 +19°C° 1.1 mm 3 mps 753 mmHg 95%
    07:00 +20°C° 1.1 mm 3 mps 753 mmHg 94%
    08:00 +20°C° 1 mm 3 mps 753 mmHg 92%
    09:00 +21°C° 1 mm 3 mps 754 mmHg 91%
    10:00 +22°C° 1 mm 3 mps 754 mmHg 90%
    11:00 +22°C° 1.1 mm 3 mps 754 mmHg 88%
    12:00 +22°C° 1.1 mm 3 mps 754 mmHg 86%
    13:00 +22°C° 1.1 mm 4 mps 754 mmHg 84%
    14:00 +22°C° 0.8 mm 4 mps 754 mmHg 85%
    15:00 +22°C° 0.8 mm 4 mps 754 mmHg 86%
    16:00 +22°C° 0.8 mm 4 mps 754 mmHg 87%
    17:00 +21°C° 0.5 mm 3 mps 754 mmHg 88%
    18:00 +20°C° 0.5 mm 3 mps 754 mmHg 90%
    19:00 +19°C° 0.5 mm 3 mps 754 mmHg 91%
    20:00 +19°C° 0.2 mm 3 mps 755 mmHg 92%
    21:00 +18°C° 0.2 mm 3 mps 755 mmHg 93%
    22:00 +17°C° 0.2 mm 3 mps 756 mmHg 94%
    23:00 +17°C° 0 mm 3 mps 756 mmHg 95%
    Show more